Kuchera_Ratio
0.0 0.0 0.0 0.0 0.0 0.0 0.0 0.0 1.5 0.0 0.0 0.0 0.0 2.0 0.0 0.0 0.0 0.0 0.0 0.0 0.0 0.0 0.0 0.0 0.0 0.0 0.0 0.0 0.0 0.0 0.0 0.0 3.8 0.0 0.0 0.0 0.0 0.0 0.0 0.0 2.2 0.0 0.0 1.0
0.0 0.0 0.0 0.0 0.0 0.0 0.0 0.0 0.0 0.0 0.0 6.8 3.7 0.0 0.0 0.0 0.0 0.0 0.0 0.0 0.0 0.0 0.0 2.8 0.0 0.0 0.0 0.0 0.0 0.0 0.0 2.0 9.6 0.4 0.0 0.0 0.0 0.0 0.0 0.0 0.0 1.0 6.8 1.4
0.0 0.0 0.0 0.0 0.0 0.0 0.0 0.0 8.8 0.9 0.0 0.0 3.4 3.4 0.8 0.0 0.0 0.0 0.0 0.0 0.0 0.0 0.0 0.0 0.0 0.0 0.0 0.0 0.0 0.0 0.0 0.0 3.1 10.2 0.8 0.0 0.0 0.0 0.0 0.0 1.6 0.0 0.0 0.0
0.0 0.0 0.0 0.0 0.0 0.0 0.0 0.0 3.6 0.6 8.4 7.2 0.6 0.0 0.0 0.6 0.0 0.0 0.0 0.0 0.0 0.0 1.6 0.0 0.0 0.0 0.0 0.0 0.0 0.0 0.0 3.4 0.0 0.0 0.0 0.0 0.0 0.0 0.0 0.0 0.0 1.4 0.0 0.0
0.0 0.0 0.0 0.0 0.0 0.0 0.0 6.5 5.7 2.0 3.0 0.0 0.3 0.8 4.0 1.6 0.0 0.0 0.0 0.0 0.0 0.0 1.0 0.0 1.2 0.0 0.0 0.2 0.0 0.0 0.0 8.0 3.8 4.2 0.0 0.0 0.6 0.0 0.0 0.0 0.0 0.0 0.0 0.0
0.0 0.0 0.0 0.0 0.0 0.0 0.0 0.0 0.0 0.9 4.6 3.9 7.8 6.8 1.6 0.0 0.0 0.0 0.0 0.0 0.0 0.4 0.0 0.0 0.0 0.0 0.0 0.0 0.0 1.8 1.8 7.8 10.0 12.4 0.4 4.0 11.4 0.8 0.0 0.0 0.0 0.0 0.0 0.0
0.0 0.0 0.0 0.0 0.0 0.0 0.0 0.0 0.0 7.6 12.5 9.0 7.4 1.6 0.0 1.0 0.0 2.0 0.0 0.0 0.0 0.0 0.0 0.0 0.0 0.0 0.0 0.0 0.0 0.0 2.0 4.4 7.8 13.2 10.7 20.7 1.8 0.0 0.0 0.0 0.0 0.0 0.0 0.0
0.0 0.0 0.0 0.0 0.0 0.0 0.0 0.0 0.0 3.0 12.2 6.6 4.8 3.0 2.0 0.0 0.0 0.8 0.0 0.0 0.0 0.0 0.0 4.4 11.8 12.7 5.4 1.4 0.0 0.0 0.0 2.2 11.6 15.2 14.5 8.2 1.8 0.0 0.0 0.0 0.0 0.0 0.0 0.0
0.0 0.0 0.0 0.0 0.0 0.0 0.0 0.0 0.0 0.1 8.0 8.8 0.8 4.8 2.8 8.2 8.2 5.0 0.6 0.0 0.0 0.0 0.0 7.6 14.7 15.9 11.6 10.4 2.2 0.0 0.0 0.0 7.8 12.2 15.9 17.5 3.2 0.0 0.0 0.0 6.3 0.0 0.0 0.0
0.0 0.0 0.0 0.0 0.0 0.0 0.0 0.0 0.0 0.3 10.0 2.3 1.7 9.0 8.5 2.0 5.0 9.0 3.4 0.6 1.3 0.0 8.4 12.9 14.8 14.9 4.8 13.3 12.1 9.2 7.8 9.6 12.0 12.1 14.7 11.8 0.0 0.0 0.0 9.6 5.6 0.0 0.0 0.0
0.0 0.0 0.0 0.0 0.0 0.0 0.0 0.0 0.0 0.0 4.8 3.4 0.0 0.0 3.8 2.8 3.8 10.6 4.3 5.7 5.4 8.2 12.4 12.4 13.1 13.8 10.6 10.4 5.2 7.6 10.0 12.7 12.7 11.9 14.8 16.6 0.0 0.0 1.0 0.0 0.0 0.0 0.0 0.0
0.0 0.0 0.0 0.0 0.0 0.0 0.0 0.0 0.0 0.0 1.6 3.2 0.0 0.0 0.0 0.0 0.0 0.2 2.6 4.8 4.2 4.8 11.4 10.2 9.4 12.8 11.6 11.6 14.2 0.6 12.1 4.1 9.8 7.8 9.0 0.0 0.0 0.0 0.0 0.0 0.0 0.0 0.0 0.0
0.0 0.0 0.0 0.0 0.0 0.0 0.0 0.0 0.0 0.0 2.0 3.6 2.6 2.4 0.0 0.0 0.0 0.0 5.6 5.0 0.0 0.2 0.0 4.8 9.4 13.4 9.4 14.0 14.2 8.4 2.0 0.0 5.2 4.6 0.0 0.0 0.0 0.0 0.0 0.0 0.0 0.0 0.0 0.0
0.0 0.0 0.0 0.0 0.0 0.0 0.0 0.0 0.0 0.0 2.2 11.0 6.6 0.0 0.0 0.0 0.0 0.0 0.0 0.0 0.0 0.0 0.0 6.8 9.6 12.9 4.6 12.4 8.8 9.8 5.2 2.2 4.2 4.6 0.0 0.0 0.0 0.0 0.0 0.0 0.0 0.0 0.0 0.0
0.0 0.0 0.0 0.0 0.0 0.0 0.0 0.0 0.0 0.0 2.3 9.6 9.0 0.0 0.0 0.0 0.0 0.0 0.0 0.0 0.0 3.0 7.4 8.5 12.0 6.4 7.4 6.2 7.0 11.0 1.8 5.4 9.2 9.8 0.0 0.0 0.0 0.0 0.0 0.0 0.0 0.0 0.0 0.0
0.0 0.0 0.0 0.0 0.0 0.0 0.0 2.5 0.0 0.0 0.0 6.6 11.0 0.0 0.0 0.0 0.0 0.0 0.0 0.0 0.0 0.0 6.0 6.2 4.8 0.0 5.6 12.6 13.4 2.2 0.0 0.0 0.0 0.0 0.0 0.0 0.0 0.0 0.0 0.0 0.0 0.0 0.0 0.0
0.0 0.0 0.0 0.0 0.0 0.0 0.8 2.2 0.0 0.0 0.0 7.7 10.3 9.6 0.0 0.0 0.0 0.0 0.0 0.0 0.0 0.3 4.8 6.8 6.2 4.8 3.2 9.8 13.0 1.6 0.0 0.0 0.0 0.0 0.0 0.0 0.0 0.0 0.0 0.0 0.0 0.0 0.0 0.0
0.0 0.0 0.0 0.0 0.0 0.0 0.0 0.0 0.0 0.0 2.8 5.6 11.2 12.4 3.8 0.0 2.6 3.6 0.0 2.2 2.0 3.8 5.4 7.0 6.5 5.2 6.2 12.7 4.0 0.0 0.0 0.0 0.0 0.0 0.0 0.0 0.0 0.0 0.0 0.0 0.0 0.0 0.0 0.0
0.0 0.0 0.0 0.0 0.0 3.1 0.8 0.0 0.0 0.0 1.0 9.4 9.6 12.9 10.8 0.0 0.9 2.3 4.0 2.6 8.2 3.6 8.0 5.8 5.0 9.2 12.5 4.2 0.0 0.0 0.0 0.0 0.0 0.0 0.0 0.0 0.0 0.0 0.0 0.0 0.0 0.0 0.0 2.2
0.0 0.0 0.0 5.4 0.0 0.0 0.0 0.0 5.8 6.6 7.4 7.4 9.0 5.0 10.8 0.9 3.1 6.0 7.4 7.0 8.8 12.0 8.6 5.2 9.6 9.0 0.0 0.0 0.0 0.0 0.0 0.0 0.0 0.0 0.2 0.0 0.0 0.0 0.0 0.0 0.0 0.0 5.2 6.4
0.0 0.0 3.4 0.0 0.0 0.0 3.2 8.2 9.0 8.2 10.0 7.8 6.8 5.0 8.6 0.0 8.2 8.4 6.4 9.6 10.0 13.0 8.9 10.8 11.3 11.0 4.6 1.8 2.6 1.2 0.0 0.0 0.0 0.0 1.2 1.8 0.4 0.0 3.2 6.2 6.0 6.6 7.6 8.4
0.0 0.0 0.0 0.0 0.6 5.8 8.5 10.2 9.7 10.2 11.0 5.4 5.5 4.4 3.4 4.2 2.0 7.2 7.8 10.2 9.2 13.4 5.4 10.8 12.3 7.8 3.8 4.0 5.0 5.6 1.8 0.0 3.6 4.8 7.4 7.0 5.4 6.0 7.4 8.0 8.8 9.2 9.2 9.8
0.0 0.0 1.3 5.0 6.0 11.8 12.5 13.9 11.4 8.9 2.4 3.6 4.6 7.0 5.0 6.0 4.8 8.2 8.4 12.1 13.2 5.2 10.6 12.2 10.8 7.0 6.0 6.6 6.6 8.4 7.0 7.0 7.6 8.0 8.1 8.0 8.4 8.0 8.6 10.6 10.6 10.8 12.0 11.8
2.0 6.8 12.0 9.6 11.4 10.6 10.7 8.8 6.4 4.6 4.4 4.0 4.4 6.6 7.4 6.6 9.0 9.0 12.2 9.3 8.0 13.5 13.6 13.0 11.0 9.6 8.6 8.2 8.8 10.0 11.0 10.0 10.4 10.6 10.6 11.2 11.4 12.0 11.4 11.6 12.0 12.4 13.0 13.4
5.0 4.8 11.4 11.0 1.8 0.5 2.1 2.6 3.4 4.2 0.8 4.0 6.2 6.0 6.4 8.0 10.0 8.2 9.6 11.8 13.8 11.6 13.1 11.8 9.8 8.6 9.2 9.8 9.8 10.2 10.6 10.6 10.8 10.3 11.0 11.6 11.6 12.0 12.4 12.2 11.8 12.4 13.3 13.9
0.8 1.0 9.5 0.0 3.1 7.2 6.0 5.0 3.2 0.0 0.6 0.4 4.0 7.2 9.2 9.6 8.8 10.2 11.8 11.0 12.8 12.3 10.4 8.8 7.4 8.0 8.8 9.2 9.4 9.6 9.4 9.8 10.8 11.6 11.6 12.2 12.3 12.4 13.3 13.0 13.3 13.7 13.6 14.0
0.0 2.6 0.0 0.0 1.2 2.8 4.2 5.3 2.7 0.0 3.6 10.4 4.9 9.8 7.6 6.3 7.2 10.2 8.8 12.6 11.4 9.8 8.2 8.8 6.8 8.0 8.6 8.6 8.6 9.2 9.2 10.4 11.0 12.0 11.8 12.0 11.2 11.1 12.3 13.6 12.8 12.4 12.8 13.9